Location: *
(49.0044°N, 9.5056°E)
Time: 08:19:53
(UTC+00:00)

Cosmos 1821 Rocket - Pass Details

Date: 22 September 2019
Orbit: 944 x 1005 km, 82.9° (Epoch: 17 October)

Event Time Altitude Azimuth Distance (km) Brightness Sun altitude
Rises 20:36:20 0° 347° (NNW) 3,657 7.8 -30.2°
Reaches altitude 10° 20:38:55 10° 342° (NNW) 2,699 7.0 -30.5°
Maximum altitude 20:44:50 52° 269° (W) 1,169 4.5 -31.2°
Enters shadow 20:45:40 49° 242° (WSW) 1,216 4.5 -31.3°
